Der Flugplatz Krefeld-Egelsberg
  • ICAO-Code: EDLK
  • Koordinaten: N 51° 23,10'    E 06° 35,26'
  • Höhe ü. NN: 141 ft / 43 m
  • Platzfrequenz: 120.675 MHz - Krefeld Info
  • Landebahn: 06 - 24
  • Abmessungen: 640 x 30m
  • Belag: Gras
  • Tragfähigkeit: 2000 kg MTW; HEL 5700 kg MTW
  • Tankstelle: Nein
  • Betriebszeit: PPR
  • PPR-Request: Tel: 02151/ 560133, 368400
  • Landegebühr: Private Flüge 5 €, für gewerbliche Flüge wird eine gesonderte Gebühr erhoben

 


EDLK

Wetterinformation

[Quelle: ADDS]
METAR
EDDL 230020Z 15011KT 7000 FEW009 OVC019 M02/M04 Q1000 R05L/290195 R05R/290195 NOSIG =
EDDL 222300Z 2300/2406 15012KT 7000 OVC020 TEMPO 2300/2307 4000 BR BKN012 PROB30 TEMPO 2300/2306 BKN009 BECMG 2304/2307 12006KT BECMG 2311/2314 06005KT BECMG 2316/2319 36004KT
TAF
EDDL 222300Z 2300/2406 15012KT 7000 OVC020 TEMPO 2300/2307 4000 BR BKN012 PROB30 TEMPO 2300/2306 BKN009 BECMG 2304/2307 12006KT BECMG 2311/2314 06005KT BECMG 2316/2319 36004KT =
Lade Webcam-Bild
Cookies erleichtern die Bereitstellung unserer Dienste. Mit der Nutzung unserer Dienste erklären Sie sich damit einverstanden, dass wir Cookies verwenden.